Вернуться в каталог

STARLINK-37535

АктивенСвязьVLEO
NORAD 69465·PAYLOAD·🇺🇸 United States

Запущен Jun 8, 2026 с Cape Canaveral Space Force Station

Loading…

Ближайшие Пролёты (ближайшие 24 часа)

TLE

СвежийSource: CelesTrak SupGP

Эпоха: Sep 15, 2026, 03:54 UTC

1 69465C 26127Y   26258.16298611 -.00027193  00000+0 -80345-3 0  2589
2 69465  53.1570 190.7790 0001321  83.3999 183.3008 15.34403585    16

Отслеживайте STARLINK-37535 в реальном времени с AllMySat

Download on the App Store